Location: Newark
(49.5647°N, 8.2922°E)
Time: 19:56:51
(UTC+00:00)

Transit 2A Rocket - All Passes

Search period start: 16 February 2020 00:00
Search period end: 26 February 2020 00:00
Orbit: 592 x 911 km, 66.7° (Epoch: 16 February)

Date Brightness Start Highest point End Pass type
(mag) Time Alt. Az. Time Alt. Az. Time Alt. Az.
16 Feb - 00:31:51 10° WSW 00:35:59 44° NW 00:40:22 10° NNE night (unlit)
16 Feb - 02:17:27 10° NW 02:19:46 14° NNW 02:22:10 10° N visible
16 Feb - 05:45:30 10° NNW 05:49:02 20° NNE 05:52:47 10° ENE visible
16 Feb - 07:27:26 10° NNW 07:32:25 71° NE 07:37:52 10° SE daylight
16 Feb - 09:10:42 10° WNW 09:14:38 22° WSW 09:18:47 10° SSW daylight
16 Feb - 22:08:54 10° SE 22:11:27 15° ESE 22:14:02 10° ENE night (unlit)
16 Feb - 23:49:03 10° SW 23:53:21 73° NW 23:57:52 10° NNE night (unlit)
17 Feb - 01:33:45 10° WNW 01:36:46 18° NNW 01:39:54 10° NNE visible
17 Feb - 05:03:12 10° NNW 05:06:02 15° NNE 05:09:01 10° ENE visible
17 Feb - 06:44:58 10° NNW 06:49:46 47° NE 06:54:59 10° ESE daylight
17 Feb - 08:27:40 10° NW 08:32:17 35° WSW 08:37:16 10° S daylight
17 Feb - 23:06:34 10° SSW 23:10:49 67° ESE 23:15:17 10° NE night (unlit)
18 Feb - 00:50:16 10° W 00:53:50 24° NW 00:57:34 10° NNE visible
18 Feb - 02:37:13 10° NNW 02:38:10 11° N 02:39:08 10° N visible
18 Feb - 04:20:55 10° N 04:22:58 12° NNE 04:25:05 10° NE visible
18 Feb - 06:02:35 10° NNW 06:07:01 32° NE 06:11:49 10° ESE daylight
18 Feb - 07:44:54 10° NW 07:49:51 56° WSW 07:55:16 10° SSE daylight
18 Feb - 22:24:26 10° S 22:28:25 38° ESE 22:32:33 10° NE night (unlit)
19 Feb - 00:07:01 10° WSW 00:11:00 34° NW 00:15:11 10° NNE night (unlit)
19 Feb - 01:53:10 10° NW 01:55:02 12° NNW 01:56:56 10° N visible
19 Feb - 03:38:40 10° N 03:39:50 11° N 03:41:01 10° NNE visible
19 Feb - 05:20:13 10° NNW 05:24:11 24° NE 05:28:26 10° E visible
19 Feb - 07:02:17 10° NW 07:07:21 88° SW 07:12:52 10° SSE daylight
19 Feb - 08:46:10 10° WNW 08:49:21 16° WSW 08:52:41 10° SW daylight
19 Feb - 21:42:47 10° SSE 21:46:07 22° ESE 21:49:33 10° ENE night (unlit)
19 Feb - 23:24:03 10° SW 23:28:16 52° NW 23:32:45 10° NNE night (unlit)
20 Feb - 01:09:19 10° WNW 01:11:57 15° NNW 01:14:40 10° NNE visible
20 Feb - 04:37:53 10° NNW 04:41:15 18° NNE 04:44:48 10° ENE visible
20 Feb - 06:19:47 10° NNW 06:24:45 61° NE 06:30:11 10° SE daylight
20 Feb - 08:02:48 10° WNW 08:07:04 26° WSW 08:11:37 10° SSW daylight
20 Feb - 21:02:01 10° SE 21:03:54 13° ESE 21:05:51 10° E night (unlit)
20 Feb - 22:41:21 10° SW 22:45:40 86° WNW 22:50:14 10° NE night (unlit)
21 Feb - 00:25:42 10° WNW 00:28:57 20° NNW 00:32:21 10° NNE visible
21 Feb - 02:13:02 10° N 02:13:28 10° N 02:13:54 10° N visible
21 Feb - 03:55:35 10° N 03:58:13 14° NNE 04:00:58 10° NE visible
21 Feb - 05:37:20 10° NNW 05:42:04 41° NE 05:47:13 10° ESE visible
21 Feb - 07:19:53 10° NW 07:24:42 42° WSW 07:29:54 10° S daylight
21 Feb - 21:58:59 10° SSW 22:03:11 55° ESE 22:07:36 10° NE night (unlit)
21 Feb - 23:42:18 10° W 23:46:03 27° NW 23:50:00 10° NNE night (unlit)
22 Feb - 01:28:54 10° NNW 01:30:18 11° NNW 01:31:43 10° N visible
22 Feb - 03:13:17 10° N 03:15:07 12° NNE 03:17:00 10° NE visible
22 Feb - 04:54:57 10° NNW 04:59:17 29° NE 05:03:58 10° E visible
22 Feb - 06:37:11 10° NW 06:42:14 67° WSW 06:47:46 10° SSE daylight
22 Feb - 08:22:14 10° W 08:24:02 12° WSW 08:25:53 10° SW daylight
22 Feb - 21:17:00 10° S 21:20:49 32° ESE 21:24:48 10° NE night (unlit)
22 Feb - 22:59:10 10° WSW 23:03:15 39° NW 23:07:36 10° NNE night (unlit)
23 Feb - 00:44:58 10° NW 00:47:11 13° NNW 00:49:26 10° N visible
23 Feb - 02:30:58 10° N 02:31:58 11° N 02:32:58 10° NNE visible
23 Feb - 04:12:36 10° NNW 04:16:25 22° NNE 04:20:29 10° E visible
23 Feb - 05:54:37 10° NW 05:59:42 81° NE 06:05:16 10° SE daylight
23 Feb - 07:38:07 10° WNW 07:41:50 20° WSW 07:45:43 10° SSW daylight
23 Feb - 20:35:34 10° SSE 20:38:33 19° ESE 20:41:38 10° ENE night (unlit)
23 Feb - 22:16:17 10° SW 22:20:34 62° NW 22:25:09 10° NNE night (unlit)
24 Feb - 00:01:14 10° WNW 00:04:07 17° NNW 00:07:08 10° NNE night (unlit)
24 Feb - 01:48:24 10° N 01:48:47 10° N 01:49:10 10° N visible
24 Feb - 03:30:16 10° NNW 03:33:27 17° NNE 03:36:47 10° ENE visible
24 Feb - 05:12:08 10° NNW 05:17:04 53° NE 05:22:28 10° SE visible
24 Feb - 06:54:58 10° NW 06:59:30 31° WSW 07:04:23 10° S daylight
24 Feb - 19:55:46 10° ESE 19:56:24 10° ESE 19:57:01 10° E night (unlit)
24 Feb - 21:33:42 10° SSW 21:38:00 79° SE 21:42:35 10° NE night (unlit)
24 Feb - 23:17:42 10° W 23:21:09 22° NNW 23:24:48 10° NNE night (unlit)
25 Feb - 01:04:38 10° NNW 01:05:36 11° N 01:06:33 10° N visible
25 Feb - 02:47:57 10° N 02:50:24 14° NNE 02:52:56 10° NE visible
25 Feb - 04:29:42 10° NNW 04:34:21 37° NE 04:39:24 10° ESE visible
25 Feb - 06:12:08 10° NW 06:17:06 49° WSW 06:22:30 10° SSE daylight
25 Feb - 20:51:27 10° S 20:55:34 45° ESE 20:59:54 10° NE night (unlit)
25 Feb - 22:34:23 10° WSW 22:38:17 30° NW 22:42:26 10° NNE night (unlit)
